[[{"header":{"parameterUnit":"m.s-1","parameterCategory":1,"la1":30.2991,"la2":30.254,"lo1":-89.0895,"lo2":-89.0444,"dy":0.0017,"dx":0.0017,"nx":28,"ny":28,"refTime":"2025-02-24T03:00:00:Z","depth":0,"parameterNumber":2,"parameterNumberName":"U-component_of_WINDS"},"data":[0,0,0,0,0,0,0,0,0,0,0,0,0,0,0,0,0,0,0,0,0,0,0,0,0,0,0,0,0,0,0,0,0,0,0,0,0,0,0,0,0,0,0,0,0,0,0,0,0,0,0,0,0,0,0,0,0,0,2.3343,2.3345,0,2.3471,2.3472,2.3473,2.3477,2.3475,2.3474,2.3472,2.3608,2.3613,2.3618,0,0,0,0,0,0,0,0,0,0,0,0,0,2.3108,2.3113,2.3343,2.3345,2.3346,2.347,2.3472,2.3474,2.3477,2.3475,2.3473,2.3472,2.3606,2.3612,2.3618,0,0,0,0,0,0,0,0,0,0,0,0,0,2.3221,2.3114,2.3343,2.3363,2.3366,2.347,2.3472,2.3474,2.3478,2.3475,2.3473,2.3471,2.3604,2.3612,2.3619,2.3713,0,0,2.3642,2.3646,0,0,0,0,0,0,0,0,2.3214,2.3229,2.3358,2.3362,2.3365,2.3455,2.3439,2.3555,2.3478,2.3435,2.3472,2.347,2.3559,2.3571,2.36,2.372,2.3726,2.3643,2.3648,2.3651,2.3653,0,0,0,0,0,0,0,2.3206,2.3224,2.3394,2.336,2.3364,2.3367,2.3381,2.3461,2.3509,2.3439,2.3439,2.3454,2.3561,2.3592,2.3603,2.3728,2.3643,2.365,2.3654,2.3657,2.3933,2.3935,0,0,0,0,0,0,2.3194,2.3217,2.339,2.3397,2.3282,2.3373,2.3388,2.3429,2.3508,2.3518,2.3456,2.3454,2.3581,2.3594,2.3608,2.3724,2.3651,2.3658,2.3662,2.393,2.3933,2.3936,0,0,0,0,0,0,2.3189,2.3209,2.3384,2.3308,2.333,2.338,2.3426,2.3433,2.3464,2.3521,2.353,2.3479,2.3579,2.3597,2.3687,2.3729,2.3662,2.3668,2.3927,2.3931,2.3935,2.3957,0,0,0,0,0,0,2.3182,2.3207,2.3242,2.3308,2.3334,2.346,2.3428,2.3437,2.3477,2.3475,2.3545,2.3555,2.3579,2.3676,2.3695,2.3738,2.3674,2.3923,2.3929,2.3934,2.3952,2.3961,2.3968,0,0,0,0,0,2.3174,2.3244,2.3244,2.3265,2.3378,2.3462,2.3477,2.3502,2.348,2.3516,2.3553,2.3552,2.3721,2.3685,2.3706,2.3752,2.3921,2.3927,2.3933,2.3949,2.3959,2.3968,0,0,0,0,0,0,2.3183,2.3253,2.3254,2.3347,2.3399,2.3463,2.3509,2.3512,2.3572,2.3568,2.3598,2.3614,2.3704,2.3737,2.3696,2.3849,2.3819,2.3829,2.3823,2.3834,2.3841,2.3831,2.3681,0,0,0,0,0,2.3196,2.3256,2.3315,2.3392,2.3418,2.3459,2.3496,2.3511,2.3566,2.3588,2.3632,2.3687,2.3752,2.3795,2.3858,2.3957,2.3973,2.4,2.4008,2.4014,2.4023,2.4079,2.4092,2.3957,2.3957,2.3957,0,0,2.3223,2.3269,2.3306,2.3395,2.3437,2.35,2.3477,2.3545,2.3594,2.3599,2.3686,2.3721,2.3784,2.3879,2.3923,2.391,2.4064,2.4022,2.4026,2.4032,2.4087,2.4099,2.4111,2.3961,2.396,2.396,0,0,2.3306,2.3346,2.3415,2.3457,2.3519,2.3547,2.3563,2.3627,2.365,2.3737,2.3743,2.3802,2.3914,2.3959,2.3996,2.4097,2.4099,2.4117,2.4159,2.4213,2.4223,2.4233,2.427,2.4282,2.4126,2.4126,2.4126,0,2.3332,2.3426,2.345,2.3518,2.3558,2.3565,2.3636,2.3676,2.3757,2.3786,2.3769,2.391,2.3953,2.4059,2.4084,2.4114,2.4135,2.4109,2.422,2.423,2.4239,2.4274,2.4288,2.4128,2.4128,2.4127,2.4127,0,2.3456,2.3522,2.3571,2.3647,2.3692,2.3762,2.3798,2.3841,2.3852,2.3882,2.3972,2.4024,2.4099,2.4125,2.4137,2.4234,2.4223,2.4213,2.4184,2.4253,2.4287,2.43,2.413,2.413,2.4129,2.4129,0,0,2.3547,2.3636,2.3654,2.3689,2.3759,2.3811,2.3882,2.3953,2.3991,2.4047,2.4107,2.4202,2.4193,2.4236,2.4254,2.4301,2.4378,2.4285,2.4287,2.4301,2.4489,2.4496,2.4511,2.438,2.4383,2.4385,2.4483,0,2.3638,2.3761,2.3785,2.3893,2.3955,2.3963,2.4025,2.4076,2.4106,2.4164,2.4198,2.4264,2.4247,2.4273,2.4321,2.4359,2.4416,2.4352,2.4438,2.4441,2.4421,2.4528,2.4536,2.4626,2.4497,2.4499,2.4501,0,2.3759,2.3817,2.393,2.3993,2.402,2.4075,2.4143,2.4198,2.4256,2.4275,2.4323,2.4335,2.4411,2.4378,2.4483,2.4439,2.4476,2.45,2.4504,2.4513,2.4475,2.454,2.4656,2.4669,2.4521,2.452,2.4518,0,2.3814,2.3921,2.4003,2.4033,2.4108,2.4147,2.418,2.4236,2.4278,2.4338,2.4365,2.4434,2.4472,2.4525,2.4556,2.4529,2.466,2.4629,2.4678,2.4677,2.4705,2.4703,2.4828,2.4729,2.4729,2.4728,2.4728,0,2.3912,2.3982,2.4029,2.4079,2.4158,2.4186,2.4264,2.4297,2.4347,2.4406,2.4418,2.4472,2.451,2.4571,2.4596,2.468,2.4697,2.4715,2.4721,2.4714,2.4712,2.4738,2.4733,2.4732,2.4731,2.4731,2.473,0,2.3987,2.4021,2.4111,2.4175,2.4193,2.4248,2.4304,2.4354,2.4384,2.4458,2.4477,2.4525,2.4597,2.4634,2.4724,2.4741,2.4836,2.4838,2.4815,2.4818,2.4865,2.486,2.5011,2.5033,2.4919,2.492,2.4921,0,2.4047,2.4101,2.4171,2.421,2.4244,2.4307,2.4349,2.438,2.4424,2.4495,2.4537,2.4609,2.4669,2.4784,2.4828,2.4898,2.4901,2.495,2.4912,2.4903,2.4902,2.4898,2.4904,2.4956,2.4958,2.4958,2.4959,0,2.4151,2.4165,2.4225,2.4291,2.4341,2.4395,2.4448,2.448,2.4519,2.4568,2.4642,2.4688,2.4779,2.4852,2.4924,2.4961,2.4967,2.4971,2.4986,2.4979,2.4964,2.4972,2.4833,2.4967,2.4966,2.4966,2.4965,2.4965,2.422,2.4269,2.4325,2.4392,2.4435,2.4484,2.4535,2.4571,2.4632,2.4708,2.4723,2.4801,2.4859,2.4957,2.4996,2.5059,2.5048,2.507,2.5076,2.508,2.5082,2.4954,2.5072,2.5072,2.5072,2.5072,2.5072,0,2.4324,2.4361,2.4422,2.4496,2.4548,2.4549,2.4608,2.4652,2.472,2.4774,2.4832,2.4916,2.4987,2.5036,2.5108,2.5149,2.5153,2.5167,2.5164,2.5172,2.5088,2.5067,2.5161,2.5161,2.5161,2.5161,2.5161,2.5161,2.4384,2.4466,2.4487,2.4591,2.4628,2.4703,2.4737,2.4784,2.4826,2.492,2.4978,2.5009,2.5062,2.5137,2.5203,2.5215,2.5241,2.5254,2.5267,2.5188,2.5178,2.5169,2.515,2.526,2.526,2.5347,2.5347,2.5348]},{"header":{"parameterUnit":"m.s-1","parameterCategory":1,"la1":30.2991,"la2":30.254,"lo1":-89.0895,"lo2":-89.0444,"dy":0.0017,"dx":0.0017,"nx":28,"ny":28,"refTime":"2025-02-24T03:00:00:Z","depth":0,"parameterNumber":3,"parameterNumberName":"V-component_of_WINDS"},"data":[0,0,0,0,0,0,0,0,0,0,0,0,0,0,0,0,0,0,0,0,0,0,0,0,0,0,0,0,0,0,0,0,0,0,0,0,0,0,0,0,0,0,0,0,0,0,0,0,0,0,0,0,0,0,0,0,0,0,1.8667,1.8667,0,1.8729,1.873,1.873,1.8706,1.8705,1.8703,1.8702,1.8766,1.8769,1.8772,0,0,0,0,0,0,0,0,0,0,0,0,0,1.8524,1.8527,1.8667,1.8668,1.8668,1.8729,1.873,1.8731,1.8707,1.8705,1.8703,1.8701,1.8765,1.8769,1.8773,0,0,0,0,0,0,0,0,0,0,0,0,0,1.8586,1.8528,1.8667,1.8664,1.8664,1.8729,1.873,1.8731,1.8707,1.8705,1.8703,1.8701,1.8764,1.8769,1.8773,1.8845,0,0,1.8787,1.8789,0,0,0,0,0,0,0,0,1.8583,1.8592,1.8663,1.8664,1.8664,1.8708,1.8703,1.8769,1.8707,1.8691,1.8702,1.8699,1.8749,1.8754,1.8771,1.8848,1.8851,1.8788,1.879,1.8792,1.8794,0,0,0,0,0,0,0,1.8578,1.8589,1.8691,1.8664,1.8665,1.8658,1.8664,1.8715,1.8731,1.8692,1.869,1.8698,1.8749,1.8766,1.8772,1.8852,1.8787,1.8792,1.8794,1.8796,1.8983,1.8986,0,0,0,0,0,0,1.8574,1.8585,1.8689,1.8693,1.8617,1.8662,1.867,1.8696,1.873,1.8734,1.87,1.8697,1.876,1.8767,1.8774,1.8856,1.8792,1.8797,1.8799,1.8981,1.8984,1.8986,0,0,0,0,0,0,1.8571,1.8584,1.8687,1.8639,1.8651,1.8667,1.8697,1.8698,1.8716,1.8736,1.8739,1.8715,1.8758,1.8768,1.8826,1.8858,1.8799,1.8803,1.8979,1.8982,1.8985,1.9023,0,0,0,0,0,0,1.8567,1.8583,1.8611,1.864,1.8654,1.8739,1.8699,1.8701,1.8724,1.8721,1.8752,1.8755,1.8757,1.8819,1.883,1.8863,1.8806,1.8976,1.898,1.8984,1.9018,1.9027,1.9034,0,0,0,0,0,1.8562,1.8621,1.8613,1.8626,1.869,1.8741,1.8749,1.8751,1.8727,1.8754,1.8766,1.8754,1.8853,1.8825,1.8838,1.8872,1.8974,1.8979,1.8984,1.9015,1.9025,1.9034,0,0,0,0,0,0,1.8599,1.8625,1.8616,1.8686,1.8711,1.8737,1.8772,1.8762,1.8795,1.879,1.8791,1.8798,1.8856,1.8871,1.884,1.894,1.8909,1.8917,1.8929,1.8939,1.8946,1.8941,1.881,0,0,0,0,0,1.8614,1.8653,1.8675,1.8734,1.8747,1.8757,1.8779,1.8778,1.8804,1.8814,1.8831,1.8856,1.8892,1.8917,1.8952,1.902,1.9024,1.905,1.9057,1.9064,1.907,1.9102,1.9112,1.9003,1.9003,1.9003,0,0,1.8648,1.8667,1.8693,1.8742,1.8761,1.8799,1.8766,1.881,1.8838,1.8821,1.8876,1.8888,1.8916,1.8978,1.9007,1.8992,1.9101,1.907,1.9075,1.9078,1.9108,1.9118,1.9127,1.9006,1.9006,1.9005,0,0,1.8729,1.8749,1.8798,1.8816,1.8844,1.885,1.8861,1.8887,1.8894,1.8949,1.8935,1.8968,1.9032,1.905,1.9069,1.9149,1.9137,1.9161,1.92,1.9231,1.924,1.9247,1.9272,1.9282,1.9167,1.9167,1.9167,0,1.8767,1.8825,1.8825,1.8867,1.8887,1.8871,1.8919,1.8937,1.8976,1.8989,1.8972,1.9048,1.9066,1.913,1.9149,1.9165,1.9176,1.9157,1.9239,1.9246,1.9253,1.9277,1.9287,1.917,1.9169,1.9169,1.9169,0,1.8869,1.8909,1.8945,1.8979,1.9003,1.9049,1.9053,1.9077,1.9072,1.9079,1.9132,1.9152,1.9188,1.9204,1.9201,1.9265,1.9255,1.9238,1.9207,1.9266,1.9288,1.9298,1.9173,1.9172,1.9172,1.9171,0,0,1.8977,1.9006,1.9019,1.9031,1.9059,1.9089,1.9132,1.9166,1.9184,1.9211,1.9244,1.9296,1.9279,1.9299,1.9298,1.9325,1.9382,1.9305,1.9305,1.9315,1.9449,1.9459,1.947,1.9374,1.9376,1.9378,1.9445,0,1.9057,1.9131,1.9128,1.9197,1.923,1.9213,1.9249,1.9269,1.9275,1.9304,1.9311,1.9346,1.9323,1.9334,1.9361,1.937,1.9408,1.9365,1.9403,1.9405,1.9394,1.9482,1.9495,1.9558,1.9454,1.9456,1.9457,0,1.9161,1.9186,1.9257,1.9273,1.9287,1.932,1.9347,1.9376,1.9396,1.9399,1.9418,1.9411,1.9451,1.9419,1.9473,1.9443,1.9459,1.9465,1.9467,1.9469,1.9433,1.9484,1.9579,1.9587,1.9471,1.947,1.9469,0,1.9227,1.9279,1.9327,1.9339,1.936,1.9383,1.9393,1.9411,1.9429,1.9453,1.9464,1.9494,1.9509,1.9531,1.953,1.9508,1.9583,1.9553,1.9584,1.9584,1.96,1.9599,1.9695,1.9614,1.9614,1.9614,1.9614,0,1.9314,1.9358,1.9356,1.9385,1.9431,1.9427,1.9472,1.948,1.9495,1.9524,1.9512,1.9539,1.9538,1.9565,1.9565,1.9606,1.9615,1.9616,1.9614,1.9615,1.9615,1.9624,1.9619,1.9616,1.9616,1.9615,1.9615,0,1.9397,1.9398,1.9447,1.9462,1.9466,1.9499,1.9511,1.9537,1.954,1.9576,1.9585,1.959,1.962,1.9622,1.9658,1.9658,1.9707,1.9703,1.97,1.9698,1.9728,1.9724,1.9833,1.9845,1.9758,1.9759,1.976,0,1.9452,1.9483,1.9499,1.9516,1.9527,1.9556,1.9573,1.9569,1.9587,1.9609,1.9632,1.9661,1.9683,1.9732,1.9739,1.9765,1.9759,1.9795,1.9764,1.9761,1.9756,1.9753,1.9754,1.9801,1.9802,1.9803,1.9804,0,1.9547,1.9544,1.957,1.9593,1.9613,1.9632,1.965,1.9665,1.9662,1.9683,1.9712,1.973,1.9764,1.9791,1.9816,1.9825,1.9813,1.9814,1.9821,1.9822,1.9817,1.9816,1.9714,1.9811,1.981,1.981,1.9809,1.9809,1.9615,1.964,1.9653,1.968,1.9692,1.9707,1.973,1.9735,1.9759,1.9785,1.9781,1.9813,1.9828,1.9859,1.9869,1.9893,1.9881,1.9894,1.9896,1.9899,1.99,1.9814,1.9898,1.9898,1.9898,1.9898,1.9897,0,1.9707,1.9713,1.9737,1.976,1.9779,1.9765,1.9782,1.98,1.9827,1.9841,1.9862,1.9894,1.9919,1.9926,1.995,1.9967,1.9962,1.9973,1.9971,1.9972,1.9912,1.9901,1.9977,1.9977,1.9977,1.9977,1.9977,1.9977,1.9757,1.9796,1.9794,1.9838,1.9845,1.9874,1.9884,1.9897,1.9908,1.9943,1.9963,1.9966,1.9976,2.0,2.0021,2.0022,2.003,2.0043,2.0042,1.9985,1.9977,1.9969,1.9959,2.0046,2.0046,2.01,2.01,2.0101]}]]